Location: Piadena
(45.1333°N, 10.3667°E)
Time: 23:06:00
(UTC+00:00)

Daily predictions for brighter satellites

Satellite Brightness Start Highest point End
(mag) Time Altitude Azimuth Time Altitude Azimuth Time Altitude Azimuth
Cosmos 1980 Rocket 2.2 19:39:03 10° SSW 19:44:38 67° ESE 19:50:13 10° NNE
Cosmos 2251 Rocket 4.3 19:39:43 10° NNW 19:44:50 53° WSW 19:49:57 10° S
Cosmos 1805 3.5 19:41:00 10° NNW 19:44:53 72° W 19:48:44 10° S
Cosmos 2151 Rocket 3.7 19:41:24 10° N 19:45:47 59° E 19:50:06 10° SSE
CENTAUR R/B 3.0 19:41:59 10° S 19:47:08 35° ESE 19:53:08 10° NE
ERS-2 3.8 19:47:30 10° N 19:50:54 38° WNW 19:54:17 10° SW
Cosmos 1140 Rocket 3.6 19:46:21 10° NNW 19:51:37 68° ENE 19:56:49 10° SSE
SPOT 1/Viking Rocket 3.9 19:49:21 10° SE 19:54:18 51° ENE 19:59:17 10° N
Terra 3.6 19:53:00 10° ESE 19:56:15 19° ENE 19:59:30 10° NNE
Cosmos 1400 Rocket 2.8 19:55:25 10° NNW 19:59:20 84° W 20:03:11 10° S
USA 245 4.2 19:57:47 10° SE 20:01:52 51° ENE 20:06:56 10° N
Cosmos 2056 Rocket 3.5 20:02:18 10° S 20:07:23 63° ESE 20:12:36 10° NNE
CARTOSAT-1 4.3 20:04:34 11° SE 20:08:23 40° ENE 20:12:25 10° N
ARIANE 5 R/B 3.1 20:11:07 12° SE 20:14:54 46° ENE 20:19:11 10° N
Cosmos 1707 3.3 20:12:50 11° SSE 20:16:11 38° E 20:19:48 10° NNE
Cosmos 2227 Rocket 4.3 20:14:14 10° NW 20:18:25 22° W 20:22:35 10° SSW
Cosmos 2263 Rocket 2.3 20:13:57 10° NNW 20:19:39 75° ENE 20:24:35 14° SSE
SPOT 3 Rocket 3.9 20:15:09 10° S 20:20:15 65° WSW 20:25:25 10° NNW
Cosmos 407 Rocket 3.9 20:15:14 10° NNW 20:20:31 63° WSW 20:25:42 10° S
Cosmos 1934 Rocket 4.3 20:14:34 10° NNW 20:20:37 69° W 20:26:41 10° S
BREEZE-M DEB (TANK) 3.6 20:23:14 13° ESE 20:23:14 13° ESE 20:24:17 10° E
Cosmos 1371 Rocket 4.0 20:18:33 10° SSW 20:23:43 85° WNW 20:28:56 10° NNE
Landsat 7 4.3 20:19:29 10° S 20:24:10 58° W 20:28:53 10° NNW
Cosmos 1674 Rocket 3.7 20:21:12 10° SSW 20:25:36 75° W 20:30:01 10° N
Cosmos 1190 Rocket 4.2 20:23:15 10° NNW 20:28:33 71° WSW 20:33:19 13° S
Geosat 4.0 20:25:22 14° SSE 20:29:43 83° WSW 20:34:47 10° NNW
Cosmos 1420 Rocket 4.0 20:25:19 10° S 20:30:25 64° ESE 20:35:34 10° NNE
Spot 2 Rocket 3.5 20:27:03 14° SSE 20:31:27 78° ENE 20:36:32 10° N
Cosmos 1727 Rocket 4.2 20:28:09 10° S 20:34:20 59° E 20:40:31 10° NNE
NOSS 3-2 (C) 3.3 20:30:20 10° SSW 20:35:46 62° ESE 20:42:02 10° NE
In-Cosmos 22 4.4 20:32:24 13° SSE 20:36:50 49° E 20:41:55 10° NNE
Cosmos 2285 Rocket 4.0 20:31:17 10° S 20:37:40 71° ESE 20:44:04 10° NNE
NOSS 3-2 (A) 3.5 20:32:23 10° SW 20:37:58 80° NW 20:44:27 10° NE
Okean 2 3.6 20:36:45 10° SSW 20:40:49 69° W 20:44:54 10° N
Cosmos 1726 2.2 20:37:54 10° NNW 20:41:32 72° W 20:44:15 17° S
Cosmos 1605 Rocket 4.3 20:37:08 10° NNW 20:43:31 73° W 20:49:44 11° S
Meteor 1-21 4.3 20:38:14 10° S 20:43:56 86° W 20:49:37 10° N
Centaur D AC-29 3.9 19:50:38 10° WSW 20:44:13 34° SSW 20:50:17 17° SSE
Cosmos 1315 Rocket 2.9 20:41:36 10° NNW 20:45:45 80° W 20:48:45 18° S
ERS-1 Rocket 3.0 20:45:11 19° SSE 20:48:53 76° ENE 20:53:56 10° N
USA 81 4.0 20:44:46 10° N 20:50:04 90° NW 20:54:15 16° S
Cosmos 2219 Rocket 4.2 20:49:52 10° ESE 20:50:44 11° E 20:52:04 10° E
ATLAS 3B R/B 4.0 20:52:20 15° ESE 20:53:34 16° ESE 20:57:22 10° ENE
Cosmos 1470 3.7 20:52:58 10° NNW 20:56:47 45° W 20:59:55 14° SSW
GEOS 3 Rocket 4.3 20:52:41 15° ESE 20:56:55 50° NE 21:02:04 10° NNW
Okean 1 Rocket 3.8 20:52:48 10° NNW 20:57:00 50° W 21:00:35 14° SSW
Cosmos 676 Rocket 4.3 20:54:52 10° NNW 21:00:09 63° WSW 21:03:55 19° S
Cosmos 1758 3.5 20:57:20 10° NNW 21:01:18 66° W 21:03:50 21° S
SL-16 R/B 2.1 20:55:58 10° SSW 21:01:37 78° ESE 21:07:19 10° NNE
SPOT 5 3.0 20:58:03 20° SSE 21:01:48 84° WSW 21:06:54 10° NNW
KORONAS-FOTON 4.0 21:00:10 27° SSE 21:01:58 54° E 21:05:42 10° NNE
Cosmos 1954 Rocket 4.5 20:58:58 10° NNW 21:04:11 56° WSW 21:07:54 19° S
Cosmos 1455 Rocket 3.2 20:59:57 10° N 21:04:23 62° E 21:06:41 27° SSE
Meteor 1-16 Rocket 4.2 20:59:57 10° N 21:05:30 66° ENE 21:08:45 24° SSE
Cosmos 2322 Rocket 2.2 21:01:48 10° SSW 21:07:23 68° ESE 21:13:05 10° NNE
Cosmos 1461 4.5 21:04:25 10° NNW 21:08:07 27° NE 21:10:52 14° E
Cosmos 2360 Rocket 2.7 21:06:00 22° SSE 21:09:04 41° ESE 21:14:21 10° NE
USA 215 3.2 21:03:01 10° NE 21:09:32 67° SE 21:16:03 10° SW
USA 238 DEB 4.0 21:04:40 10° SW 21:11:12 68° NW 21:18:05 10° NE
USA 238 4.0 21:04:47 10° SW 21:11:18 69° NW 21:18:11 10° NE
Resurs 01 Rocket 4.1 21:10:19 10° SW 21:12:50 15° W 21:15:23 10° NW
Cosmos 2237 4.3 21:11:20 19° S 21:15:24 57° ESE 21:20:59 10° NNE
SL-8 R/B 4.3 21:14:01 10° WNW 21:18:46 58° N 21:23:30 10° E
BREEZE-M DEB (TANK) 2.6 21:16:44 10° WSW 21:19:19 87° SSE 21:25:16 10° ENE
Lacrosse 5 1.8 21:15:27 10° NW 21:20:32 84° SW 21:23:12 29° SE
Genesis I 3.2 21:17:23 10° SW 21:21:13 80° NW 21:25:10 10° NE
Cosmos 1459 Rocket 3.9 21:16:08 10° N 21:22:13 84° E 21:25:54 25° S
Cosmos 1000 Rocket 4.4 21:19:10 20° S 21:23:36 82° E 21:29:46 10° N
Cosmos 1626 2.2 21:24:21 40° SSE 21:25:20 56° E 21:28:59 10° NNE
Cosmos 1110 Rocket 4.1 21:25:12 28° S 21:27:42 54° ESE 21:32:45 10° NNE
Cosmos 1536 Rocket 4.3 21:27:57 30° SE 21:29:13 37° E 21:33:21 10° NNE
Cosmos 1953 2.5 21:28:53 10° NNW 21:32:56 68° W 21:34:36 33° S
Terra 2.2 21:30:59 26° S 21:33:33 58° W 21:38:16 10° NNW
ATLAS CENTAUR R/B 3.5 21:32:22 10° NNW 21:35:48 23° NE 21:39:06 11° E
CENTAUR R/B 3.4 21:31:38 10° WSW 21:37:29 52° NW 21:44:30 10° NNE
Cosmos 1300 3.4 21:35:44 10° N 21:39:20 39° ENE 21:40:09 34° ESE
Cosmos 1674 3.3 21:37:32 24° SW 21:39:30 50° WNW 21:43:08 10° N
H-2A R/B 3.7 21:36:08 10° N 21:40:13 66° WNW 21:42:27 25° SSW
Cosmos 2123 Rocket 4.0 21:37:49 27° S 21:41:21 71° E 21:47:39 10° NNE
USA 267 3.5 21:37:26 15° ESE 21:42:57 68° NNE 21:49:27 10° NW
Cosmos 405 3.4 21:40:48 10° N 21:44:08 45° ENE 21:44:35 42° E
Cosmos 1452 Rocket 4.1 21:39:20 10° SW 21:44:31 57° WNW 21:49:44 10° NNE
Cosmos 1908 3.8 21:43:15 10° NNW 21:47:02 50° W 21:48:22 34° SSW
Cosmos 2100 Rocket 4.5 21:44:04 10° NNW 21:50:17 57° W 21:54:15 23° SSW
Cosmos 1975 Rocket 4.3 21:49:02 15° SW 21:52:11 36° WNW 21:56:15 10° N
Cosmos 1844 Rocket 2.6 21:46:45 10° NNW 21:52:28 87° ENE 21:55:01 35° SSE
SL-14 R/B 3.2 21:53:12 48° S 21:54:16 81° E 21:58:20 10° N
Aureole 1 Rocket 3.9 21:49:34 10° NNW 21:55:02 83° WSW 21:58:28 32° SSE
Cosmos 2333 4.4 21:53:09 34° SSE 21:55:25 54° ESE 22:01:00 10° NE
Cosmos 1850 Rocket 4.5 21:51:19 10° NNW 21:56:29 52° WSW 21:58:43 31° SSW
Cosmos 1025 Rocket 3.4 21:55:41 29° SSW 21:57:47 59° W 22:02:08 10° N
Cosmos 2233 Rocket 4.1 21:51:48 10° N 21:57:53 61° ENE 22:00:40 32° SE
Cosmos 2333 Rocket 2.5 22:00:00 36° SSE 22:01:57 50° ESE 22:07:29 10° NE
Cosmos 2263 Rocket 4.2 21:59:18 10° WNW 22:02:54 17° W 22:06:17 11° SW
Spot 4 4.0 22:03:38 39° SE 22:05:17 63° ENE 22:10:02 10° N
Cosmos 2228 3.7 22:06:46 10° N 22:10:59 43° ENE 22:12:02 36° ESE
Cosmos 1340 2.8 22:10:26 50° SW 22:11:15 68° WNW 22:15:00 10° N
Meteor 1-24 Rocket 3.6 22:10:05 40° SSE 22:11:54 66° E 22:17:15 10° NNE
Cosmos 2016 Rocket 4.4 22:12:27 10° NNW 22:18:22 54° W 22:21:23 28° SSW
Cosmos 1331 Rocket 4.4 22:16:11 23° SW 22:19:21 62° WNW 22:24:37 10° NNE
Cosmos 1844 3.7 22:17:41 10° NNW 22:23:13 66° WSW 22:25:07 41° S
Cosmos 1725 Rocket 4.4 22:20:45 10° NNW 22:26:45 55° W 22:29:39 30° SSW
ALOS 2 2.9 22:25:47 44° ESE 22:26:50 57° ENE 22:31:09 10° N
Cosmos 1726 Rocket 4.3 22:25:05 10° N 22:29:23 44° ENE 22:30:23 37° ESE
Cosmos 2219 Rocket 2.1 22:31:32 40° S 22:33:40 76° ESE 22:39:22 10° NNE
Cosmos 1302 Rocket 3.9 22:32:10 40° SSW 22:34:10 88° WNW 22:39:28 10° NNE
Cosmos 1892 Rocket 4.0 22:40:25 42° ESE 22:40:56 44° E 22:45:10 10° NNE
Cosmos 1606 Rocket 3.6 22:37:17 10° N 22:41:47 76° E 22:42:37 57° SSE
Cosmos 2237 Rocket 3.3 22:41:47 26° ESE 22:42:38 27° ESE 22:47:18 10° NE
Cosmos 389 Rocket 2.5 22:39:37 10° N 22:42:52 69° NE 22:42:52 69° NE
ATLAS 3B R/B 2.5 22:39:31 29° SSW 22:43:11 84° SE 22:49:58 10° NE
FALCON 9 DEB 3.3 22:44:12 69° NNE 22:44:12 69° NNE 22:47:19 10° NE
Cosmos 1461 3.6 22:43:22 10° NW 22:47:11 37° WSW 22:47:11 37° WSW
Meteor 2-5 Rocket 4.3 22:47:48 27° SW 22:50:32 48° WNW 22:55:56 10° N
Cosmos 1346 Rocket 2.7 22:51:09 69° SW 22:51:34 80° W 22:55:35 10° N
Cosmos 2322 Rocket 4.3 22:47:30 10° W 22:51:59 23° NW 22:56:29 10° N
USA 215 4.2 22:46:10 10° NE 22:52:24 49° NNW 22:58:39 10° W
COSMOS 2428 2.6 22:50:46 40° SSW 22:52:57 87° ESE 22:58:45 10° NNE
Cosmos 2360 Rocket 3.6 22:48:02 10° WSW 22:53:08 34° NW 22:58:16 10° N
Cosmos 1900 4.4 22:49:07 10° NW 22:53:55 55° WSW 22:54:39 50° SSW
Lacrosse 5 rocket 1.0 22:57:45 78° NW 22:57:47 78° NW 23:01:23 10° NE
Iridium 2 3.6 22:58:38 73° WSW 22:58:47 74° W 23:02:33 10° N
Uosat 12 SS-18 rocket 4.0 22:58:55 61° SSE 22:59:29 69° ESE 23:04:22 10° NE
Cosmos 2322 4.1 22:57:38 26° SW 23:00:44 58° WNW 23:06:20 10° NNE
SL-8 R/B 3.5 22:56:41 10° WNW 23:01:29 78° SSW 23:02:46 48° SE
Cosmos 1486 Rocket 3.9 22:56:27 10° NNW 23:01:43 89° ENE 23:03:10 49° SSE
Lacrosse 5 3.8 22:59:52 10° W 23:02:23 16° WSW 23:02:23 16° WSW
Cosmos 2034 Rocket 4.4 23:00:16 10° N 23:06:21 54° ENE 23:09:00 32° SE
Nimbus 7 Rocket 4.4 23:00:17 10° NNE 23:06:22 81° ESE 23:08:36 42° S
Cosmos 1455 2.0 23:06:20 10° N 23:10:12 89° W 23:10:18 85° S
Cosmos 1354 Rocket 4.5 23:06:00 10° NNW 23:11:16 55° ENE 23:13:27 33° SE
Meteor 2-10 Rocket 4.1 23:08:12 10° NNW 23:13:05 45° W 23:14:19 37° SW
DNEPR-1 R/B 3.8 23:09:41 10° NW 23:13:46 50° WSW 23:13:49 50° WSW
Meteor 2-1 Rocket 4.2 23:08:26 10° N 23:13:57 71° ENE 23:15:48 42° SSE
Cosmos 2278 Rocket 2.3 23:08:30 10° NNW 23:14:11 70° ENE 23:16:34 36° SE
MTI 4.4 23:11:39 10° N 23:14:10 50° NNW 23:14:10 50° NNW
ATLAS CENTAUR R/B 1.6 23:10:40 10° NW 23:14:57 58° WSW 23:15:12 57° SW
Cosmos 1626 Rocket 4.5 23:14:26 34° ESE 23:15:07 36° E 23:19:12 10° NNE
Okean 1-7 Rocket 3.7 23:17:58 56° SE 23:18:39 65° E 23:23:06 10° NNE
SAR-Lupe-2 3.8 23:17:47 10° N 23:21:20 59° WNW 23:21:26 58° W
Tsikada Rocket 4.5 23:22:59 33° SE 23:25:21 50° E 23:31:17 10° NNE
USA 267 3.7 23:24:45 37° SSW 23:26:11 41° SW 23:32:19 10° WNW
Cosmos 1992 Rocket 4.1 23:26:26 43° SW 23:28:08 71° WNW 23:33:23 10° NNE
Cosmos 1328 4.2 23:28:07 46° ESE 23:28:16 46° E 23:32:01 10° NNE
Cosmos 1703 3.1 23:30:59 79° SSE 23:31:11 85° E 23:35:09 10° N
Cosmos 968 Rocket 4.2 23:28:31 10° NW 23:33:11 37° WSW 23:33:58 34° WSW
Cosmos 2058 Rocket 3.5 23:42:02 10° NNW 23:46:20 47° W 23:46:54 44° WSW
Cosmos 2333 Rocket 3.8 23:41:58 12° WSW 23:46:28 30° NW 23:51:28 10° N
GP-B 3.0 23:42:47 10° N 23:47:16 79° E 23:48:05 58° SSE
Cosmos 1441 Rocket 3.3 23:50:46 61° WSW 23:51:05 64° WNW 23:54:57 10° N
Cosmos 1980 3.7 23:49:19 41° SSW 23:51:25 82° WNW 23:57:09 10° NNE
FALCON 9 DEB 3.7 23:52:32 46° NE 23:52:32 46° NE 23:54:52 10° ENE
USA 32 4.0 23:48:00 10° N 23:53:18 83° E 23:54:59 45° SSE
